FW8448 Weather Reports


Display with metric or nautical units.
time (UTC)temp
F
wind
direction
speed
MPH
gust
MPH
rain 1hr
in
rain 24hr
in
rain mn
in
humidity
%
barometer
mb
20260904040103 75 0 0.0 2.0 0.00 0.00 0.00 95 1015.8
20260904034604 76 0 0.0 1.0 0.00 0.00 0.00 94 1015.9
20260904033059 76 0 0.0 2.0 0.00 0.00 0.00 94 1015.8
20260904031606 76 0 0.0 0.0 0.00 0.00 0.00 93 1016.0
20260904030059 77 0 0.0 1.0 0.00 0.00 0.00 92 1016.1
20260904024557 78 0 0.0 2.0 0.00 0.00 0.00 91 1016.3
20260904023104 79 0 0.0 2.0 0.00 0.00 0.00 90 1016.4
20260904021605 78 46 3.0 9.0 0.00 0.00 0.00 92 1016.3
20260904020106 77 0 0.0 0.0 0.00 0.00 0.00 93 1016.2
20260904014621 77 0 0.0 0.0 0.00 0.00 0.00 93 1016.0
20260904013121 78 0 0.0 0.0 0.00 0.00 0.00 92 1015.9
20260904011602 78 0 0.0 0.0 0.00 0.00 0.00 91 1015.8
20260904010115 79 0 0.0 0.0 0.00 0.00 0.00 89 1015.6
20260904004618 80 0 0.0 0.0 0.00 0.00 0.00 88 1015.7
20260904003133 81 0 0.0 0.0 0.00 0.00 0.00 86 1015.4
20260904001602 82 0 0.0 0.0 0.00 0.00 0.00 84 1015.4
20260904000059 84 0 0.0 0.0 0.00 0.00 0.00 82 1015.2
20260903234557 87 0 0.0 0.0 0.00 0.00 0.00 80 1015.2
20260903233103 89 0 0.0 1.0 0.00 0.00 0.00 77 1015.2
20260903231600 88 206 0.0 2.0 0.00 0.00 0.00 76 1015.0
20260903230105 87 0 0.0 0.0 0.00 0.00 0.00 79 1014.9
20260903224601 89 0 0.0 3.0 0.00 0.00 0.00 74 1014.8
20260903223114 91 0 0.0 3.0 0.00 0.00 0.00 69 1014.8
20260903221559 92 242 0.0 3.0 0.00 0.00 0.00 70 1014.7
20260903220057 93 273 1.0 7.0 0.00 0.00 0.00 67 1014.6
20260903214556 93 232 3.0 10.0 0.00 0.00 0.00 66 1014.7
20260903213104 93 223 2.0 7.0 0.00 0.00 0.00 64 1014.5
20260903211611 94 251 3.0 8.0 0.00 0.00 0.00 64 1014.6
20260903210058 94 284 2.0 8.0 0.00 0.00 0.00 67 1014.5
20260903204556 94 268 2.0 6.0 0.00 0.00 0.00 65 1014.6
20260903203101 94 215 1.0 8.0 0.00 0.00 0.00 66 1014.7
20260903201603 93 275 4.0 8.0 0.00 0.00 0.00 64 1015.0
20260903194600 93 257 2.0 11.0 0.00 0.00 0.00 68 1015.5
20260903193107 93 219 2.0 11.0 0.00 0.00 0.00 65 1015.7
20260903191601 93 229 2.0 10.0 0.00 0.00 0.00 66 1016.0
20260903190106 93 200 3.0 11.0 0.00 0.00 0.00 68 1016.1
20260903184603 93 269 5.0 11.0 0.00 0.00 0.00 65 1016.2
20260903183107 93 253 2.0 9.0 0.00 0.00 0.00 68 1016.2
20260903181601 92 234 3.0 10.0 0.00 0.00 0.00 68 1016.2
20260903180110 92 208 2.0 10.0 0.00 0.00 0.00 69 1016.3
20260903174620 91 272 7.0 12.0 0.00 0.00 0.00 69 1016.6
20260903173110 91 275 4.0 11.0 0.00 0.00 0.00 71 1016.6
20260903171604 91 292 3.0 10.0 0.00 0.00 0.00 69 1016.8
20260903170108 90 279 3.0 14.0 0.00 0.00 0.00 72 1016.8
20260903164607 90 259 3.0 9.0 0.00 0.00 0.00 71 1017.0
20260903163059 90 264 3.0 7.0 0.00 0.00 0.00 72 1017.0
20260903161602 89 238 3.0 12.0 0.00 0.00 0.00 76 1017.3
20260903160106 88 360 4.0 11.0 0.00 0.00 0.00 73 1017.3
20260903154601 88 252 5.0 13.0 0.00 0.00 0.00 75 1017.3
20260903153108 87 267 2.0 12.0 0.00 0.00 0.00 78 1017.2
20260903151601 86 298 4.0 10.0 0.00 0.00 0.00 79 1017.1
20260903150100 85 257 2.0 7.0 0.00 0.00 0.00 80 1017.1
20260903144603 85 252 3.0 8.0 0.00 0.00 0.00 82 1017.2
20260903143106 84 273 2.0 7.0 0.00 0.00 0.00 83 1017.2
20260903141557 83 281 3.0 7.0 0.00 0.00 0.00 84 1017.2
20260903140105 82 279 1.0 7.0 0.00 0.00 0.00 86 1017.3
20260903134604 81 261 1.0 4.0 0.00 0.00 0.00 88 1017.4
20260903133110 80 0 0.0 0.0 0.00 0.00 0.00 89 1017.5
20260903131554 79 0 0.0 0.0 0.00 0.00 0.00 91 1017.6
20260903130129 78 0 0.0 0.0 0.00 0.00 0.00 93 1017.6
20260903124606 76 0 0.0 0.0 0.00 0.00 0.00 95 1017.7
20260903123100 74 0 0.0 0.0 0.00 0.00 0.00 96 1017.6
20260903121602 73 0 0.0 0.0 0.00 0.00 0.00 96 1017.6
20260903120106 72 0 0.0 0.0 0.00 0.00 0.00 96 1017.5
20260903114600 72 0 0.0 0.0 0.00 0.00 0.00 96 1017.5
20260903113102 72 0 0.0 0.0 0.00 0.00 0.00 96 1017.3
20260903111604 72 0 0.0 0.0 0.00 0.00 0.00 96 1017.2
20260903110101 72 0 0.0 1.0 0.00 0.00 0.00 96 1017.0
20260903104603 72 0 0.0 1.0 0.00 0.00 0.00 96 1017.0
20260903103106 72 0 0.0 0.0 0.00 0.00 0.00 96 1016.8
20260903101605 72 0 0.0 0.0 0.00 0.00 0.00 96 1016.8
20260903100058 72 0 0.0 0.0 0.00 0.00 0.00 96 1016.7
20260903094608 72 0 0.0 0.0 0.00 0.00 0.00 96 1016.6
20260903093102 72 0 0.0 0.0 0.00 0.00 0.00 95 1016.6
20260903091603 73 0 0.0 0.0 0.00 0.00 0.00 95 1016.6
20260903090106 73 0 0.0 0.0 0.00 0.00 0.00 95 1016.7
20260903084558 73 0 0.0 0.0 0.00 0.00 0.00 95 1016.6
20260903083110 73 0 0.0 0.0 0.00 0.00 0.00 95 1016.7
20260903081620 73 0 0.0 0.0 0.00 0.00 0.00 95 1016.6
20260903074610 74 0 0.0 0.0 0.00 0.00 0.00 94 1016.5
20260903073135 74 0 0.0 0.0 0.00 0.00 0.00 94 1016.6
20260903071620 74 0 0.0 1.0 0.00 0.00 0.00 94 1016.5
20260903070103 75 0 0.0 0.0 0.00 0.00 0.00 93 1016.5
20260903064600 75 0 0.0 1.0 0.00 0.00 0.00 93 1016.5
20260903063058 76 0 0.0 1.0 0.00 0.00 0.00 92 1016.5
20260903061601 76 208 0.0 3.0 0.00 0.00 0.00 92 1016.5
20260903060141 76 0 0.0 2.0 0.00 0.00 0.00 93 1016.6
20260903054559 75 0 0.0 0.0 0.00 0.00 0.00 93 1016.6
20260903053055 76 0 0.0 0.0 0.00 0.00 0.00 94 1016.6
20260903051606 76 0 0.0 0.0 0.00 0.00 0.00 93 1016.4
20260903044602 76 0 0.0 0.0 0.00 0.00 0.00 94 1016.3
20260903043052 76 0 0.0 0.0 0.00 0.00 0.00 94 1016.2
20260903041600 76 0 0.0 0.0 0.00 0.00 0.00 93 1016.2